Skip Page Navigation
NASA JPL Caltech
NASA Logo - Jet Propulsion Laboratory + View the NASA Portal
+ Center for Near-Earth Object Studies
JPL Home Earth Solar System Stars & Galaxies Technology
JPL Solar System Dynamics
BODIES ORBITS EPHEMERIDES TOOLS PHYSICAL DATA DISCOVERY FAQ SITE MAP
JPL Small-Body Database Browser
Search: [ help ]  
434341 (2004 PU80)
Classification: Main-belt Asteroid          SPK-ID: 2434341
Ephemeris | Orbit Diagram | Orbital Elements | Mission Design | Physical Parameters | Discovery Circumstances ]

[ show orbit diagram ]
Orbital Elements at Epoch 2459000.5 (2020-May-31.0) TDB
Reference: JPL 11 (heliocentric ecliptic J2000)
 Element Value Uncertainty (1-sigma)   Units 
e .09271869094550114 7.5965e-08  
a 2.443701824103875 3.7014e-08 au
q 2.217124989911831 1.9368e-07 au
i 6.400228714499858 8.0157e-06 deg
node 287.1766012548097 7.1928e-05 deg
peri 4.342677730699341 9.0506e-05 deg
M 75.09523519346051 6.4231e-05 deg
tp 2458709.441271738224
(2019-Aug-13.94127174)
0.00024451 TDB
period 1395.310127257766
3.82
3.1701e-05
8.679e-08
d
yr
n .2580071576686082 5.8619e-09 deg/d
Q 2.67027865829592 4.0446e-08 au
  Orbit Determination Parameters
   # obs. used (total)      100  
   data-arc span      4967 days (13.60 yr)  
   first obs. used      2004-08-10  
   last obs. used      2018-03-17  
   planetary ephem.      DE431  
   SB-pert. ephem.      SB431-N16  
   condition code      0  
   norm. resid. RMS      .59684  
   source      ORB  
   producer      Otto Matic  
   solution date      2019-Jul-14 13:12:42  

Additional Information
 Earth MOID = 1.20093 au 
 Jupiter MOID = 2.47248 au 
 T_jup = 3.485 
[ show covariance matrix ]

Ephemeris | Orbit Diagram | Orbital Elements | Mission Design | Physical Parameters | Discovery Circumstances ]

Physical Parameter Table
Parameter Symbol Value Units Sigma Reference Notes
absolute magnitude H 17.2   n/a MPO437680  

434341 (2004 PU80)          Discovered 2004-Aug-10 by LINEAR at Socorro
Reference: Last Updated: 2015-06-04

Alternate Designations
 2004 PU80 = 2012 TM94 
Ephemeris | Orbit Diagram | Orbital Elements | Mission Design | Physical Parameters | Discovery Circumstances ]
ABOUT SSD CREDITS/AWARDS PRIVACY/COPYRIGHT GLOSSARY LINKS
FirstGov 2020-Aug-05 00:02 UT
(server date/time)  
NASA Home Page
Site Manager:   Ryan S. Park
Webmaster  Alan B. Chamberlin